Location: Homewood
(41.1836°S, 175.9581°E)
Time: 11:15:08
(UTC+00:00)

Cosmos 1624 Rocket - Pass Details

Date: 18 April 2024
Orbit: 755 x 781 km, 74.0° (Epoch: 24 May)

Event Time Altitude Azimuth Distance (km) Brightness Sun altitude
Rises 17:08:56 0° 347° (NNW) 3,204 7.1 -19.8°
Reaches altitude 10° 17:11:16 10° 348° (NNW) 2,289 6.3 -19.4°
Maximum altitude 17:16:28 77° 73° (ENE) 793 4.1 -18.4°
Drops below altitude 10° 17:21:45 10° 158° (SSE) 2,331 6.8 -17.4°
Sets 17:24:09 0° 159° (SSE) 3,269 7.5 -16.9°
